Santa Rosa, CA

7:24 PM PDT on July 22, 2017 (GMT -0700)
Sonoma County

Weather History for KSTS - May, 2014

Change the Weather History Date:

Sunday, May 4, 2014

  Actual Average Record
Temperature  
Mean Temperature 58 °F 58 °F  
Max Temperature 70 °F 72 °F 89 °F (2011)
Min Temperature 46 °F 45 °F 39 °F (2008)
Degree Days  
Heating Degree Days 7    
Month to date heating degree days 12  
Since 1 July heating degree days 2409  
Cooling Degree Days 0    
Month to date cooling degree days 5  
Year to date cooling degree days 14  
Growing Degree Days 8 (Base 50)    
Moisture  
Dew Point 47 °F    
Average Humidity 67    
Maximum Humidity 86    
Minimum Humidity 48    
Precipitation  
Precipitation 0.00 in 0.07 in 0.93 in (2009)
Month to date precipitation 0.00 0.26  
Year to date precipitation 12.55 20.78  
Since 1 July precipitation 14.57  
Sea Level Pressure  
Sea Level Pressure 29.99 in    
Wind  
Wind Speed 7 mph (WSW)    
Max Wind Speed 18 mph    
Max Gust Speed 25 mph    
Visibility 10 miles    
Events      
T = Trace of Precipitation, MM = Missing Value Source: NWS Daily Summary

Daily Weather History Graph

Daily Weather History Graph

Search for Another Location

Airport or City:

Trip Planner

Search our weather history database for the weather conditions in past years. The results will help you decide how hot, cold, wet, or windy it might be!

Date:

Astronomy

May. 04, 2014 Rise Set
Actual Time 6:10 AM PDT 8:06 PM PDT
Civil Twilight 5:41 AM PDT 8:34 PM PDT
Nautical Twilight 5:06 AM PDT 9:10 PM PDT
Astronomical Twilight 4:29 AM PDT 9:47 PM PDT
Moon 10:39 AM PDT (5/4) 12:14 AM PDT (5/4)
Length of Visible Light 14h 53m
Length of Day
13h 55m
Waxing Crescent, 28% of the Moon is Illuminated
May 4
Waxing Crescent
May 6
First Quarter
May 14
Full
May 21
Last Quarter
May 28
New

Hourly Weather History & Observations

Time (PDT) Temp. Dew Point Humidity Pressure Visibility Wind Dir Wind Speed Gust Speed Precip Events Conditions
12:53 AM 52.0 °F 45.0 °F 77% 29.98 in 10.0 mi West 6.9 mph - N/A   Clear
1:53 AM 52.0 °F 45.0 °F 77% 29.98 in 10.0 mi WSW 3.5 mph - N/A   Clear
2:53 AM 51.1 °F 45.0 °F 80% 29.98 in 10.0 mi Calm Calm - N/A   Clear
3:53 AM 51.1 °F 45.0 °F 80% 29.99 in 10.0 mi Calm Calm - N/A   Clear
4:53 AM 48.0 °F 44.1 °F 86% 29.99 in 10.0 mi Calm Calm - N/A   Clear
5:53 AM 48.9 °F 45.0 °F 86% 29.99 in 10.0 mi Calm Calm - N/A   Clear
6:53 AM 48.9 °F 45.0 °F 86% 29.99 in 10.0 mi Calm Calm - N/A   Scattered Clouds
7:53 AM 55.0 °F 48.0 °F 77% 30.00 in 10.0 mi Calm Calm - N/A   Scattered Clouds
8:53 AM 60.1 °F 48.9 °F 67% 30.01 in 10.0 mi Calm Calm - N/A   Scattered Clouds
9:53 AM 63.0 °F 48.9 °F 60% 30.01 in 10.0 mi East 3.5 mph - N/A   Scattered Clouds
10:53 AM 66.0 °F 46.9 °F 50% 30.01 in 10.0 mi Variable 4.6 mph - N/A   Mostly Cloudy
11:53 AM 66.9 °F 46.0 °F 47% 30.00 in 10.0 mi West 6.9 mph - N/A   Mostly Cloudy
12:53 PM 68.0 °F 48.9 °F 50% 30.00 in 10.0 mi West 10.4 mph - N/A   Mostly Cloudy
1:53 PM 68.0 °F 48.9 °F 50% 29.99 in 10.0 mi WSW 15.0 mph 19.6 mph N/A   Mostly Cloudy
2:53 PM 69.1 °F 50.0 °F 51% 29.98 in 10.0 mi SW 15.0 mph 20.7 mph N/A   Overcast
3:53 PM 66.0 °F 48.9 °F 54% 29.97 in 10.0 mi WSW 17.3 mph 23.0 mph N/A   Overcast
4:53 PM 66.0 °F 50.0 °F 56% 29.96 in 10.0 mi WSW 17.3 mph - N/A   Overcast
5:53 PM 64.9 °F 50.0 °F 58% 29.96 in 10.0 mi West 11.5 mph - N/A   Mostly Cloudy
6:53 PM 63.0 °F 48.9 °F 60% 29.96 in 10.0 mi West 8.1 mph - N/A   Scattered Clouds
7:53 PM 59.0 °F 46.9 °F 64% 29.96 in 10.0 mi West 9.2 mph - N/A   Clear
8:53 PM 57.0 °F 46.0 °F 67% 29.98 in 10.0 mi West 9.2 mph - N/A   Clear
9:53 PM 55.9 °F 46.0 °F 69% 29.99 in 10.0 mi West 9.2 mph - N/A   Clear
10:53 PM 54.0 °F 46.0 °F 75% 30.01 in 10.0 mi West 5.8 mph - N/A   Clear
11:53 PM 53.1 °F 46.9 °F 80% 30.01 in 10.0 mi West 5.8 mph - N/A   Clear